Wind_Speed
29 27 26 24 23 21 19 18 17 17 17 18 18 18 17 16 16 16 17 18 17 17 17 18 18 18 18 17 17 17 17 18 18 17 17 17 17 17 17 18 17 17
31 29 27 26 24 22 20 19 18 18 19 19 19 19 18 17 17 17 18 19 18 18 18 19 19 18 18 18 18 18 18 19 19 19 18 18 18 17 17 18 18 18
33 30 29 28 26 24 21 20 19 20 20 20 20 20 19 18 18 18 19 19 19 19 19 19 20 19 19 19 19 19 19 20 20 20 19 19 18 18 18 18 19 19
34 32 30 29 27 24 21 20 20 21 21 21 21 20 20 19 19 19 20 20 20 20 20 20 20 20 20 20 20 20 20 21 21 20 20 20 19 18 19 19 20 20
35 33 31 29 27 23 21 21 22 22 22 23 22 21 21 20 20 20 20 20 20 21 21 21 21 21 21 21 21 21 21 22 22 21 21 20 20 19 20 20 20 21
35 33 31 29 27 24 23 23 23 23 23 23 22 22 21 21 21 21 21 21 21 21 21 22 22 22 22 22 22 22 22 23 23 22 21 21 21 20 20 20 21 23
35 32 31 29 26 24 24 23 23 23 23 23 23 23 22 22 22 21 21 22 22 22 22 22 23 23 23 23 22 23 23 23 23 22 22 22 22 22 21 21 23 24
34 32 31 29 26 24 24 24 24 23 23 23 24 24 23 22 22 22 22 22 22 23 23 23 23 24 24 23 23 24 24 23 24 23 23 23 23 23 23 23 24 25
32 31 30 28 26 25 24 24 24 23 23 24 25 24 23 22 22 22 22 22 23 23 23 24 24 24 25 25 24 24 24 24 25 24 24 24 24 24 25 25 25 26
31 30 29 27 26 25 25 24 24 23 23 24 25 24 23 22 22 22 22 23 23 24 24 24 25 25 25 26 26 25 25 25 26 26 26 26 26 26 27 27 27 28
30 29 28 27 25 25 25 24 24 23 24 24 24 24 23 22 22 22 22 24 24 24 25 25 25 26 26 27 26 26 26 26 27 27 28 28 28 28 28 29 29 29
29 29 28 26 25 25 24 24 23 23 24 24 24 24 23 22 22 22 23 24 24 24 24 25 26 26 27 27 27 27 27 27 28 29 29 30 30 30 31 31 31 31
29 28 26 25 25 25 24 23 23 23 24 24 23 23 22 22 22 23 23 24 24 24 25 25 26 27 28 28 28 28 28 29 30 30 31 32 32 33 32 32 32 31
28 26 25 24 24 24 23 23 23 23 23 23 22 22 22 22 22 23 23 23 24 25 25 25 26 28 29 29 30 30 30 31 32 32 33 34 34 35 34 33 32 31
26 24 23 23 23 23 23 23 23 23 23 22 22 22 22 22 22 22 23 24 25 25 25 26 27 28 29 30 31 31 32 33 34 34 35 36 36 35 35 33 32 32
24 23 22 22 23 23 23 23 23 22 22 22 22 22 21 22 22 23 24 25 26 26 26 27 28 29 30 30 29 29 31 33 33 34 35 35 35 35 34 33 33 33
22 22 22 22 23 23 23 23 22 22 22 22 22 22 22 22 23 24 24 25 26 27 28 29 29 30 30 29 27 28 30 32 32 32 31 31 31 31 31 31 30 31
22 21 21 22 23 23 23 22 21 21 22 22 22 22 22 23 24 25 25 26 27 28 29 30 31 31 29 28 28 29 30 32 32 31 30 29 29 29 29 29 28 28
20 20 21 22 23 22 22 21 21 22 22 23 23 22 22 24 25 26 26 27 27 29 30 31 31 31 29 28 29 30 30 31 33 32 29 28 27 27 28 27 27 26
20 20 21 22 22 21 20 20 21 22 22 22 22 22 23 25 26 27 27 28 28 29 30 31 31 31 30 28 28 29 30 31 32 32 30 28 27 27 26 25 25 25
20 21 21 21 20 19 19 20 21 22 22 22 22 23 24 25 26 27 28 28 28 29 30 32 32 31 29 28 28 29 29 30 30 30 28 27 26 25 25 25 25 26
20 20 19 19 18 18 19 20 21 22 22 22 23 24 25 26 26 27 28 28 29 28 29 32 33 31 28 27 28 28 28 29 29 28 27 27 27 27 27 27 27 26
18 18 18 18 18 19 20 21 21 22 22 22 23 24 25 26 27 27 27 28 28 29 30 32 33 32 28 27 27 27 27 28 28 28 28 28 28 28 28 28 27 26
17 17 18 18 19 20 20 21 21 22 22 22 22 24 25 26 26 27 27 28 29 30 30 31 33 33 28 26 27 27 26 27 28 27 27 27 26 26 26 27 27 27
17 17 18 19 20 20 20 21 21 21 21 21 22 24 25 26 26 26 28 29 30 31 31 30 32 33 30 27 27 26 26 26 27 27 27 27 27 26 27 28 28 28
17 17 18 19 19 20 19 20 21 21 21 21 23 24 25 26 26 26 29 30 30 31 31 31 31 32 31 29 27 26 26 25 26 26 25 24 23 23 24 25 26 28
Wind_Direction
240 242 243 245 248 252 256 262 267 269 271 274 274 275 278 279 279 277 276 278 279 282 285 286 285 284 282 280 279 281 286 287 285 281 279 279 279 275 271 270 270 271
239 241 242 244 246 250 255 262 267 268 270 273 274 275 277 277 277 276 276 277 278 280 283 284 281 279 277 275 276 280 284 285 282 280 278 280 280 275 271 271 272 273
239 240 240 242 245 249 255 262 265 266 269 270 271 273 274 275 275 274 274 274 276 279 280 280 278 275 273 273 275 279 283 283 280 279 278 279 278 274 272 273 273 273
237 239 240 242 245 250 256 260 262 264 267 268 270 272 272 273 272 272 272 273 274 277 278 277 275 273 271 272 275 279 282 281 278 277 276 276 275 272 273 275 274 273
237 239 240 241 244 249 254 257 260 263 266 268 270 270 269 269 269 270 271 271 273 275 276 276 274 271 270 271 275 279 281 279 276 275 272 271 270 270 273 275 273 273
237 238 239 240 243 248 252 255 259 262 265 267 267 267 267 267 267 268 270 271 273 274 275 275 273 270 269 271 275 279 279 277 275 272 269 266 267 268 271 273 273 273
235 237 237 238 242 247 251 255 259 263 266 267 266 266 266 267 268 269 271 273 274 274 275 274 272 269 268 271 275 278 277 276 273 268 265 264 265 267 269 272 273 273
235 236 236 237 241 246 251 256 261 265 267 266 264 265 266 267 269 271 272 274 274 275 275 274 270 267 268 270 274 276 276 274 270 265 263 263 265 267 270 273 274 273
234 235 234 235 240 247 253 259 264 267 267 264 263 265 266 267 269 272 275 276 276 276 275 272 269 266 267 270 272 274 274 273 268 264 262 263 264 267 271 273 274 272
232 232 231 235 242 250 256 261 265 265 263 263 263 264 265 267 270 273 276 277 277 276 275 271 268 267 268 270 271 273 273 272 269 264 263 264 266 269 272 274 273 272
230 229 231 238 246 253 258 262 263 262 261 261 262 263 264 267 271 275 277 278 277 276 274 271 269 269 270 270 270 271 272 271 268 265 265 266 267 270 272 273 273 271
227 228 233 242 249 255 259 260 260 259 260 260 260 261 264 267 273 277 278 278 277 276 274 272 271 271 270 271 271 272 272 270 268 267 266 267 269 271 272 273 271 269
227 230 238 246 253 257 259 258 258 258 258 258 259 260 264 269 275 278 279 279 277 276 274 273 273 273 272 272 273 273 273 271 269 268 268 268 270 272 272 272 271 268
229 235 243 250 254 256 255 255 256 258 258 258 258 261 266 273 278 280 281 280 278 277 276 275 275 273 273 273 274 275 274 272 270 269 269 270 271 272 272 271 271 269
233 240 247 251 252 252 252 254 257 259 259 258 260 264 270 276 279 281 282 281 280 279 278 276 275 273 274 275 276 276 275 273 271 270 270 270 270 271 272 271 271 271
236 243 247 249 249 250 252 255 259 260 259 259 262 268 273 276 279 280 281 281 281 280 279 277 275 275 277 277 274 273 273 271 270 269 269 268 267 267 268 269 270 270
239 243 246 248 249 251 254 257 259 259 260 262 266 270 274 276 278 280 282 282 282 281 280 278 277 279 280 277 272 270 269 268 267 266 266 265 264 263 264 264 265 265
240 243 246 248 250 252 256 258 260 260 261 264 268 272 275 277 278 281 283 283 282 281 280 279 280 282 281 277 273 273 272 271 270 269 268 267 265 263 262 261 260 260
242 245 248 251 252 255 257 259 260 261 263 267 271 274 277 278 279 281 283 283 282 280 280 280 281 283 282 277 275 276 276 276 276 275 273 270 268 265 262 259 258 258
246 249 251 253 254 256 258 259 261 264 267 270 272 275 276 278 280 282 282 282 281 280 281 281 282 284 283 278 276 277 277 277 278 277 276 273 271 268 264 260 259 260
250 251 252 254 256 258 260 262 265 268 269 272 274 276 277 279 280 281 281 282 281 281 282 281 283 284 283 279 278 279 279 280 280 280 277 274 272 269 265 263 265 266
252 253 254 257 259 261 264 266 268 270 272 274 276 277 277 278 279 279 281 282 283 283 282 282 283 284 281 279 279 280 280 281 281 279 277 275 274 272 269 268 269 268
255 256 258 261 263 264 266 268 270 272 274 276 276 277 277 278 279 281 282 283 284 283 282 281 284 285 283 279 280 280 280 279 278 276 274 273 272 270 269 268 269 269
261 261 262 263 264 265 267 269 271 273 275 276 276 277 278 279 281 282 282 282 282 283 282 281 283 285 284 280 279 280 279 279 278 277 274 273 272 271 270 269 269 271
265 264 263 263 263 264 266 269 271 273 275 276 276 276 279 281 281 281 282 282 282 283 283 281 281 284 285 281 280 280 279 277 277 274 271 270 269 268 267 267 267 270
263 261 261 262 263 265 267 269 271 273 274 275 276 278 280 280 280 280 281 283 284 284 284 282 281 284 287 285 281 279 278 276 274 271 269 269 269 267 266 266 267 270
Height
843 843 844 845 845 846 846 846 846 846 846 846 847 847 847 847 847 847 847 846 846 845 845 845 845 845 845 845 845 845 845 844 844 844 844 843 843 843 842 842 842 842
839 839 840 841 842 842 843 843 843 843 843 843 844 844 844 844 844 844 844 843 843 843 842 842 842 842 842 842 842 842 841 841 841 841 840 840 840 840 839 840 839 839
834 835 836 837 838 839 839 840 840 840 840 840 840 841 841 841 841 841 841 840 840 839 839 839 839 839 839 839 839 839 838 838 837 837 837 837 837 837 836 837 836 836
830 830 832 833 834 835 836 836 837 837 837 837 837 838 838 838 838 838 837 837 836 836 836 836 836 836 836 836 836 835 835 834 834 834 834 833 833 833 833 833 833 833
825 827 828 830 831 832 832 833 833 833 834 833 834 835 835 835 835 834 834 834 833 833 833 833 833 833 833 832 832 832 831 831 831 831 830 830 830 830 830 830 829 829
821 823 824 826 827 828 829 829 830 830 830 830 830 831 832 831 831 831 831 830 830 830 830 829 829 829 829 829 829 828 828 827 827 827 827 826 827 826 826 826 825 825
817 819 820 822 823 824 825 825 826 826 826 826 827 827 828 828 827 827 827 827 827 826 826 826 825 825 825 825 825 824 824 824 824 824 823 823 823 823 823 823 822 821
813 815 817 819 820 820 821 822 822 822 822 823 824 824 825 824 824 824 824 823 823 822 822 822 821 822 822 821 821 821 820 820 820 820 820 819 819 819 819 819 818 817
809 811 813 815 816 817 817 818 818 818 819 820 820 821 821 821 820 820 820 819 819 818 818 818 818 818 818 818 817 817 817 817 817 817 816 816 815 815 815 815 814 813
806 808 810 811 812 813 813 814 814 815 816 816 817 817 817 817 817 816 816 815 815 815 814 814 814 814 814 814 813 813 813 813 813 813 812 812 811 811 811 810 810 809
802 804 806 807 808 809 809 810 811 812 812 813 813 813 813 813 813 812 812 811 811 811 810 810 810 810 810 810 809 809 809 809 809 808 808 808 807 807 806 806 805 804
799 800 802 803 804 805 806 807 808 808 809 809 810 810 810 809 809 808 808 807 807 807 807 807 807 806 806 806 806 806 805 805 805 804 804 803 803 802 801 801 800 800
795 797 798 800 801 802 803 803 804 805 805 806 806 806 806 805 805 804 804 804 803 803 803 803 803 803 802 802 802 802 801 801 800 800 799 798 798 797 796 796 795 795
791 794 795 797 798 799 799 800 801 801 802 802 802 802 802 801 801 800 800 800 800 799 799 799 799 799 798 798 798 798 797 797 796 795 794 793 793 792 791 791 790 790
789 791 792 793 795 795 796 797 797 798 798 798 798 798 798 798 797 797 796 796 795 795 795 795 795 794 794 794 794 793 793 792 791 790 789 788 787 786 785 785 785 785
786 788 789 790 791 792 792 793 794 794 795 794 794 794 794 794 793 793 793 792 792 791 791 791 791 790 790 790 790 789 788 787 785 785 784 782 781 780 780 780 779 779
783 785 786 787 788 788 789 790 790 791 791 791 791 790 790 790 790 789 789 788 788 787 787 787 786 786 786 786 786 785 784 783 781 779 779 777 776 775 774 774 774 774
780 781 783 783 784 785 785 786 787 787 787 787 787 787 787 787 786 785 785 785 784 784 783 782 782 782 782 782 781 780 779 778 777 775 774 773 772 771 770 770 769 769
777 778 779 780 781 782 782 783 783 783 783 783 783 783 783 783 782 782 781 781 780 780 778 778 777 777 778 777 776 775 774 773 772 770 769 768 767 766 766 765 765 765
774 775 775 776 778 778 779 779 779 779 779 779 780 780 779 779 778 778 777 777 777 776 774 773 773 773 773 772 771 770 769 768 767 766 764 763 762 762 761 761 761 761
771 771 772 773 774 775 775 775 775 775 775 776 776 776 775 775 774 774 774 773 772 772 770 769 768 769 769 768 767 766 765 764 762 761 759 758 757 757 756 756 757 757
767 768 769 770 770 771 771 771 771 772 772 772 772 772 772 771 770 770 770 769 768 768 766 764 763 764 764 763 762 762 760 759 758 756 755 754 753 752 752 752 752 752
764 765 766 766 767 767 767 767 768 768 768 769 769 768 768 767 766 766 765 765 764 763 762 760 758 759 760 759 758 757 756 755 754 752 750 749 748 747 747 747 747 748
761 762 762 763 763 764 764 765 765 765 765 766 765 764 764 763 763 762 761 761 760 758 758 756 753 753 755 754 753 753 752 751 749 747 746 744 744 743 743 743 743 743
758 759 759 760 760 761 761 762 762 762 762 762 762 761 760 759 759 758 757 756 755 754 753 752 749 749 749 750 749 748 748 747 745 743 741 740 739 739 738 738 738 738
756 756 756 757 757 758 759 759 759 759 759 759 758 757 756 755 755 754 753 751 751 750 749 747 746 744 744 744 744 743 743 742 741 739 737 735 735 735 734 734 734 733